Location: Moreno Valley Japanese Free Methodist Church
(33.9286°N, 117.2348°W)
Time: 13:44:06
(UTC+00:00)

Daily predictions for brighter satellites

Satellite Brightness Start Highest point End
(mag) Time Altitude Azimuth Time Altitude Azimuth Time Altitude Azimuth
Cosmos 2173 Rocket 4.1 12:03:16 10° S 12:09:30 74° E 12:15:40 10° N
Cosmos 1408 Rocket 3.9 12:19:58 10° S 12:24:11 61° E 12:28:28 10° NNE
Delta 2 Rocket 3.7 12:25:19 63° NE 12:25:19 63° NE 12:29:28 10° E
Cosmos 2360 Rocket 3.9 12:20:25 10° N 12:25:20 29° ENE 12:30:13 10° ESE
Cosmos 2061 Rocket 4.2 12:20:05 10° S 12:26:18 72° E 12:32:28 10° N
Cosmos 1833 4.5 12:21:42 10° S 12:27:15 66° ESE 12:32:49 10° NNE
Cosmos 1980 Rocket 4.2 12:34:52 13° SSW 12:34:52 13° SSW 12:35:39 10° SSW
Cosmos 2298 Rocket 4.0 12:32:46 58° NW 12:32:46 58° NW 12:37:42 10° N
SL-16 R/B 2.1 12:30:03 32° NNW 12:32:49 85° ENE 12:38:28 10° SSE
CZ-3B R/B 2.8 12:30:19 29° SW 12:33:40 45° S 12:38:24 10° ESE
ALOS 4.2 12:31:04 10° NE 12:35:12 31° E 12:39:18 10° SSE
Cosmos 1825 2.6 12:31:48 10° S 12:35:30 61° E 12:39:12 10° NNE
Cosmos 2322 Rocket 2.2 12:35:06 23° NNW 12:38:43 81° ENE 12:44:24 10° SSE
NOSS 3-4 (A) 4.4 12:34:07 15° NNW 12:40:15 59° ENE 12:47:58 10° SE
NOSS 3-4 (C) 4.4 12:34:12 15° NNW 12:40:21 59° ENE 12:48:03 10° SE
Cosmos 1459 Rocket 4.0 12:41:29 10° SSW 12:47:29 53° W 12:53:38 10° N
OAO 3 Rocket 3.3 12:48:31 44° WSW 12:49:48 62° SSW 12:54:33 10° ESE
COSMO-SKYMED 1 3.2 12:52:24 10° SSE 12:56:37 55° ENE 13:00:53 10° N
Centaur D-1AR AC-39 4.1 12:54:09 13° SW 12:57:54 27° S 13:10:54 10° ESE
Cosmos 1437 3.7 12:57:43 10° SSW 13:03:18 13° N 13:03:45 10° N
Cosmos 2016 Rocket 4.0 12:56:16 10° SSW 13:02:24 60° W 13:08:40 10° N
Cosmos 1725 Rocket 3.9 12:56:59 10° S 13:03:14 76° W 13:09:33 10° N
Cosmos 1484 Rocket 2.7 12:59:39 10° N 13:03:39 65° WNW 13:07:35 10° SSW
ATLAS CENTAUR R/B 3.6 13:05:45 15° NNW 13:05:45 15° NNW 13:07:11 10° N
Meteor 2-3 Rocket 4.0 12:59:37 10° S 13:05:20 72° E 13:11:06 10° NNE
H-2A R/B 2.3 13:04:20 20° SSW 13:05:29 29° SSE 13:10:02 10° E
OAO 3 Copernicus 4.3 13:09:54 27° W 13:12:42 78° N 13:17:43 10° E
Cosmos 2219 Rocket 4.3 13:09:17 10° N 13:13:50 24° ENE 13:18:23 10° ESE
SL-4 R/B 2.5 13:10:41 20° NW 13:14:00 72° NE 13:18:45 10° SE
Longmarch 3A Rocket 2.7 13:13:32 14° SSW 13:14:08 16° S 13:15:44 10° SE
Chandra Rocket (1) 4.3 13:01:51 19° W 13:14:14 53° SSW 13:19:32 10° SE
Cosmos 972 Rocket 3.9 13:09:29 10° SSW 13:14:29 78° WNW 13:19:59 10° NNE
CZ-2C R/B 4.3 13:11:36 10° NNW 13:12:17 13° NNW 13:12:17 13° NNW
Meteor PRIRODA 4.4 13:13:30 10° NNW 13:16:41 29° WNW 13:19:50 10° SW
CZ-4B R/B 3.6 13:11:59 10° NNE 13:17:26 70° ESE 13:22:57 10° S
OAO 2 Rocket 4.3 13:15:02 20° W 13:17:53 36° SSW 13:22:31 10° SE
ATLAS 2AS CENTAUR R/B 2.9 13:13:18 12° NW 13:19:59 58° WSW 13:26:34 10° SSE
SKYMED 3 4.5 13:16:22 10° S 13:20:41 74° WSW 13:25:02 10° NNW
Cosmos 1125 Rocket 3.8 13:17:33 10° SW 13:22:32 42° WNW 13:27:32 10° N
Cosmos 2333 Rocket 3.9 13:19:03 10° N 13:24:10 31° ENE 13:29:13 10° ESE
BREEZE-M DEB (TANK) 1.5 13:24:27 29° WNW 13:25:19 55° SW 13:28:16 10° SE
Cosmos 1151 Rocket 3.6 13:22:58 10° NNW 13:26:55 35° W 13:30:51 10° SSW
Cosmos 1400 Rocket 2.9 13:25:53 10° N 13:29:54 79° E 13:33:51 10° S
Cosmos 1816 Rocket 4.5 13:23:46 10° NNW 13:30:00 67° W 13:36:07 10° S
STARLINK 1050 4.0 13:27:24 10° SSW 13:30:01 39° SE 13:32:40 10° ENE
STARLINK 1055 4.0 13:28:22 10° SSW 13:31:01 40° SE 13:33:41 10° ENE
STARLINK 1022 3.9 13:29:21 10° SSW 13:32:00 42° SE 13:34:40 10° ENE
STARLINK-67 2.3 13:30:30 21° NW 13:32:03 74° SW 13:34:39 10° SE
STARLINK 1042 3.8 13:30:04 10° SSW 13:32:44 43° SE 13:35:26 10° ENE
STARLINK 1056 3.8 13:31:10 10° SSW 13:33:51 45° SE 13:36:32 10° ENE
STARLINK 1054 3.7 13:32:16 10° SSW 13:34:58 46° SE 13:37:40 10° ENE
STARLINK 1062 3.6 13:33:03 10° SSW 13:35:45 48° SE 13:38:28 10° NE
STARLINK 1053 3.5 13:34:35 10° SSW 13:37:18 51° SE 13:40:02 10° NE
STARLINK 1061 3.5 13:35:04 10° SSW 13:37:48 52° SE 13:40:33 10° NE
STARLINK 1067 3.4 13:36:10 10° SSW 13:38:55 54° SE 13:41:40 10° NE
Tsikada Rocket 4.1 13:32:55 10° NNW 13:39:09 60° W 13:45:17 10° S
COSMOS 2455 4.0 13:35:47 13° WNW 13:39:35 23° WSW 13:44:09 10° SSW
STARLINK 1058 3.3 13:37:06 10° SSW 13:39:51 56° SE 13:42:37 10° NE
FALCON 9 DEB 2.8 13:37:32 10° SSW 13:39:53 58° SE 13:42:16 10° NE
STARLINK 1043 3.2 13:38:07 10° SSW 13:40:53 58° SE 13:43:40 10° NE
STARLINK 1065 3.2 13:39:02 10° SSW 13:41:47 60° SE 13:44:34 10° NE
STARLINK 1027 3.1 13:39:51 10° SW 13:42:39 62° SE 13:45:28 10° NE
STARLINK 1028 3.1 13:40:03 10° SW 13:42:51 63° SE 13:45:38 10° NE
STARLINK 1021 3.1 13:40:14 10° SW 13:43:01 63° SE 13:45:50 10° NE
STARLINK 1063 3.1 13:40:18 10° SW 13:43:04 63° SE 13:45:52 10° NE
STARLINK 1019 3.1 13:40:25 10° SW 13:43:13 63° SE 13:46:02 10° NE
STARLINK 1012 3.1 13:40:36 10° SW 13:43:23 64° SE 13:46:12 10° NE
STARLINK 1010 3.0 13:40:47 10° SW 13:43:35 64° SE 13:46:24 10° NE
STARLINK 1026 3.0 13:40:59 10° SW 13:43:47 65° SE 13:46:36 10° NE
STARLINK 1064 3.0 13:41:06 10° SW 13:43:52 65° SE 13:46:40 10° NE
STARLINK 1013 3.0 13:41:10 10° SW 13:43:58 65° SE 13:46:47 10° NE
Starlink Launch 2 leader 2.4 13:41:42 10° SW 13:44:08 73° SE 13:46:34 10° NE
STARLINK 1009 3.0 13:41:20 10° SW 13:44:08 66° SE 13:46:57 10° NE
STARLINK 1015 3.0 13:41:31 10° SW 13:44:20 66° SE 13:47:09 10° NE
STARLINK 1016 3.0 13:41:43 10° SW 13:44:31 67° SE 13:47:20 10° NE
STARLINK 1008 3.0 13:41:55 10° SW 13:44:43 67° SE 13:47:32 10° NE
SKYMED 2 4.1 13:40:46 10° SSW 13:44:46 37° W 13:48:48 10° NNW
STARLINK 1014 3.0 13:42:04 10° SW 13:44:52 67° SE 13:47:41 10° NE
STARLINK 1041 2.9 13:42:08 10° SW 13:44:55 67° SE 13:47:43 10° NE
STARLINK 1025 3.0 13:42:15 10° SW 13:45:04 68° SE 13:47:53 10° NE
STARLINK 1017 2.9 13:42:27 10° SW 13:45:16 68° SE 13:48:05 10° NE
STARLINK 1023 2.9 13:42:39 10° SW 13:45:27 69° SE 13:48:17 10° NE
STARLINK 1045 2.9 13:42:49 10° SW 13:45:37 69° SE 13:48:26 10° NE
STARLINK 1007 2.9 13:42:50 10° SW 13:45:38 69° SE 13:48:28 10° NE
STARLINK 1048 2.9 13:43:01 10° SW 13:45:49 70° SE 13:48:39 10° NE
Helios 1A Rocket 3.1 13:42:01 10° N 13:45:55 46° WNW 13:49:47 10° SSW
STARLINK 1049 2.9 13:43:09 10° SW 13:45:58 70° SE 13:48:47 10° NE
STARLINK 1038 2.9 13:43:12 10° SW 13:46:00 70° SE 13:48:48 10° NE
STARLINK 1051 2.9 13:43:21 10° SW 13:46:10 71° SE 13:49:00 10° NE
STARLINK 1037 2.9 13:43:32 10° SW 13:46:22 71° SE 13:49:11 10° NE
STARLINK 1068 2.9 13:43:37 10° SW 13:46:26 71° SE 13:49:15 10° NE
Okean O Rocket 1.8 13:42:15 10° N 13:46:27 49° WNW 13:50:38 10° SSW
STARLINK 1059 2.9 13:43:44 10° SW 13:46:33 72° SE 13:49:23 10° NE
STARLINK 1034 2.8 13:43:46 10° SW 13:46:34 72° SE 13:49:22 10° NE
STARLINK 1057 2.9 13:43:56 10° SW 13:46:45 72° SE 13:49:35 10° NE
STARLINK 1060 2.8 13:44:04 10° SW 13:46:51 73° SE 13:49:39 10° NE
Cosmos 1805 Rocket 3.5 13:42:34 10° S 13:46:54 80° W 13:51:14 10° N
STARLINK 1052 2.8 13:44:08 10° SW 13:46:57 73° SE 13:49:47 10° NE
STARLINK 1046 2.8 13:44:15 10° SW 13:47:02 73° SE 13:49:51 10° NE
Cosmos 972 4.4 13:42:24 10° SSW 13:47:16 77° WNW 13:52:30 10° NNE
STARLINK 1029 2.8 13:44:29 10° SW 13:47:18 74° SE 13:50:08 10° NE
STARLINK 1030 2.8 13:44:52 10° SW 13:47:41 75° SE 13:50:32 10° NE
FALCON 9 DEB 2.2 13:45:26 10° SW 13:47:48 82° SE 13:50:14 10° NE
Starlink Launch 2 trailer 2.2 13:45:22 10° SW 13:47:48 86° SE 13:50:15 10° NE
Cosmos 2228 Rocket 3.3 13:43:23 10° NNW 13:47:51 54° W 13:52:18 10° S
STARLINK 1020 2.8 13:45:03 10° SW 13:47:52 75° SE 13:50:42 10° NE
Cosmos 1743 Rocket 4.5 13:44:24 10° SW 13:48:03 26° WNW 13:51:41 10° NNW
STARLINK 1039 2.8 13:45:18 10° SW 13:48:06 76° SE 13:50:55 10° NE
STARLINK 1033 2.8 13:45:38 10° SW 13:48:27 77° SE 13:51:17 10° NE
STARLINK 1031 2.8 13:45:49 10° SW 13:48:39 77° SE 13:51:30 10° NE
STARLINK 1024 2.8 13:46:00 10° SW 13:48:51 78° SE 13:51:42 10° NE
Cosmos 1515 Rocket 4.3 13:45:04 10° NNW 13:48:51 30° W 13:52:39 10° SSW
STARLINK 1032 2.7 13:46:09 10° SW 13:48:59 78° SE 13:51:50 10° NE
STARLINK 1035 2.7 13:46:10 10° SW 13:49:00 78° SE 13:51:51 10° NE
Shenzhou-11 Module 3.8 13:47:30 10° W 13:49:16 16° SW 13:51:00 10° S
STARLINK 1011 2.7 13:46:34 10° SW 13:49:24 79° SE 13:52:15 10° NE
GPS 2-05 Rocket1 2.4 13:46:51 10° WSW 13:49:27 66° SSE 13:52:04 10° E
NOAA 6 4.1 13:44:28 10° N 13:49:28 56° WNW 13:54:26 10° SSW
STARLINK 1036 2.7 13:46:45 10° SW 13:49:34 80° SE 13:52:25 10° NE
STARLINK 1047 2.7 13:47:09 10° SW 13:49:58 81° SE 13:52:49 10° NE
FALCON 9 DEB 2.1 13:48:02 10° SW 13:50:26 89° NW 13:52:53 10° NE
SEDSat Delta rocket 4.1 13:51:53 10° SW 13:55:47 41° SSE 14:00:02 10° E
Meteor 1-26 Rocket 4.4 13:55:34 10° NNW 14:00:59 51° W 14:06:16 10° SSW
BREEZE-M DEB (TANK) 2.6 13:54:39 10° NW 14:02:20 81° SW 14:05:04 10° SE
BREEZE-M DEB (TANK) 4.2 13:54:10 10° WSW 14:08:56 60° NW 14:12:59 10° NE
